User: anonymous   Login
Location: Unspecified
(0.0000°N, 0.0000°E)
Time: 01:48:46
(UTC+00:00)
Language:

IGS 6A - Orbit

View from above orbital plane
View from above orbital plane
View from above satellite
View from above satellite

Ground track
Ground track

The orbit data is extracted from the following two-line orbital elements,

1 37813U 11050A   18146.96791666 0.00000000  00000-0  00000-0 0    02
2 37813  97.7336 263.0664 0001000  90.5494 269.4504 14.93435058    00
Epoch (UTC): 26 May 2018 23:13:47
Eccentricity: 0.0001000
inclination: 97.7336°
perigee height: 586 km
apogee height: 588 km
right ascension of ascending node: 263.0664°
argument of perigee: 90.5494°
revolutions per day: 14.93435058
mean anomaly at epoch: 269.4504°
orbit number at epoch: 0

The dashed part of the orbit path shows where the satellite is in the earth's shadow,  

DLR